STARLINK-32457, 61717

Orbit data source: Space-Track

STARLINK-32457, 61717 is a payload satellite owned by SpaceX/Seattle (US) in LEO that was launched on Wed, 30 Oct 2024 UTC via an FALCON 9 launch vehicle from the Air Force Eastern Test Range (AFETR). Payload-class satellites include a variety of spacecraft equipped with specific instruments for various scientific and technological missions. These include communications satellites like Starlink; space stations such as the ISS; scientific satellites like the Hubble; Earth observation satellites from companies like Planet Labs, Umbra, and HawkEye 360; GPS; miniature CubeSats for education and research; and military/defense satellites.

Loading next visibility...
Identifier
61717, 2024-196L
Orbit
LEO
Country
Flag of USUS
Related business
Manufacturer
SpaceX/Seattle
Mission
Operational Commercial Communications
Bus & Motor
STARLINK V2M, Unknown motor
Mass
730 kg wet, ~700 kg dry
Launch date (UTC)
2024-10-30 (11 months ago)
Launch vehicle
FALCON 9
Launch site
Air Force Eastern Test Range (AFETR)
Object type
Payload
Rocket body
Debris
Shape & HBR
Box + 2 Pan, 14.5 m
Radar Cross Section
36.964 m², Large (>1 m²)

Expand to show TLE details & history
Last TLE update: 14 hours ago

TLE from 14 hours ago
0 STARLINK-32457
1 61717U 24196L   25258.22156778  .00000745  00000-0  37288-4 0  9992
2 61717  53.1619 196.2285 0001360  98.6302 261.4853 15.30205746 50298
Epoch: 2025-09-15T05:19Z
TLE epoch observation values (Epoch: 2025-09-15T05:19:03.456Z)
Latitude
Longitude
122.03477°
Altitude
476.236 km
Speed
7.629 km/s
True Right ascension
13h 04m 54s
True Declination
0° 00' 00"
Sunlit
Object was in daylight at epoch
Visualization orbit readout
Latitude
Unknown
Longitude
Unknown
Altitude
Unknown
Speed
Unknown
Apparent Right ascension
Unknown
Apparent Declination
Unknown
Sunlit
N/A
Visualization observer readout
Local Sidereal Time
12:07:26
Azimuth
Unknown
Elevation
Unknown
Doppler factor
Unknown
Orbital elements
Apogee altitude
476.386 km
Perigee altitude
474.522 km
Semi-major axis
6,853.591 km
Eccentricity
0.00014
Inclination
53.1619°
RAAN
196.2285°
Arg. of periapsis
98.6302°
True anomaly
261.46989°
Mean anomaly
261.4853°
Eccentric anomaly
261.47759°
Mean motion
3.8253 °/min
Orbital period
94.11 mins
BSTAR
0.000037288
Loading maneuver chart data...
Computing Atmospheric mass density...
Loading historical data...
Loading historical data...
Loading historical data...
Loading historical data...
Loading historical data...
Loading historical data...
Loading historical data...

Documentation

Showing up to 5 results
|